Change the Weather History Date:

Tuesday, January 1, 2013

  Actual Average Record
Temperature  
Mean Temperature 25 °F 25 °F  
Max Temperature 27 °F 31 °F 54 °F (2011)
Min Temperature 22 °F 19 °F -7 °F (1968)
Degree Days  
Heating Degree Days 40 40  
Month to date heating degree days 40 40  
Since 1 July heating degree days 2342 2491  
Cooling Degree Days 0 0  
Month to date cooling degree days 0 0  
Year to date cooling degree days 0 0  
Moisture  
Dew Point 15 °F    
Average Humidity 63    
Maximum Humidity 75    
Minimum Humidity 50    
Precipitation  
Precipitation T in 0.07 in 1.73 in (1985)
Month to date precipitation T 0.07  
Year to date precipitation T 0.07  
Sea Level Pressure  
Sea Level Pressure 30.13 in    
Wind  
Wind Speed 6 mph (NW)    
Max Wind Speed 15 mph    
Max Gust Speed 18 mph    
Visibility 10 miles    
Events Snow    
T = Trace of Precipitation, MM = Missing Value Source: NWS Daily Summary

Daily Weather History Graph

Daily Weather History Graph

Search for Another Location

Airport or City:

Trip Planner

Search our weather history database for the weather conditions in past years. The results will help you decide how hot, cold, wet, or windy it might be!

Date:

Astronomy

Jan. 01, 2013 Rise Set
Actual Time 8:11 AM EST 5:21 PM EST
Civil Twilight 7:39 AM EST 5:52 PM EST
Nautical Twilight 7:04 AM EST 6:27 PM EST
Astronomical Twilight 6:30 AM EST 7:02 PM EST
Moon 9:56 PM EST (1/1) 10:18 AM EST (1/1)
Length of Visible Light 10h 13m
Length of Day
9h 09m
Waning Gibbous, 83% of the Moon is Illuminated
Jan 1
Waning Gibbous
Jan 4
Last Quarter
Jan 11
New
Jan 18
First Quarter
Jan 26
Full

Hourly Weather History & Observations

Time (EST) Temp. Windchill Dew Point Humidity Pressure Visibility Wind Dir Wind Speed Gust Speed Precip Events Conditions
12:53 AM 26.1 °F 20.5 °F 19.0 °F 75% 30.08 in 10.0 mi NW 4.6 mph - N/A   Overcast
1:53 AM 26.6 °F 19.1 °F 17.6 °F 69% 30.04 in 10.0 mi NNW 6.9 mph - N/A   Overcast
2:53 AM 25.0 °F 18.1 °F 16.0 °F 69% 30.09 in 10.0 mi North 5.8 mph - N/A   Overcast
3:53 AM 25.0 °F 17.1 °F 16.0 °F 69% 30.10 in 10.0 mi NNW 6.9 mph - N/A   Overcast
4:53 AM 25.0 °F 18.1 °F 15.1 °F 66% 30.10 in 10.0 mi North 5.8 mph - N/A   Overcast
5:53 AM 25.0 °F 17.1 °F 14.0 °F 63% 30.10 in 10.0 mi North 6.9 mph - N/A   Overcast
6:53 AM 24.1 °F 16.0 °F 14.0 °F 65% 30.12 in 10.0 mi North 6.9 mph - N/A   Overcast
7:53 AM 24.1 °F 17.0 °F 14.0 °F 65% 30.15 in 10.0 mi North 5.8 mph - N/A   Overcast
8:53 AM 23.0 °F 13.9 °F 16.0 °F 74% 30.19 in 10.0 mi North 8.1 mph - N/A   Overcast
9:53 AM 23.0 °F 17.0 °F 14.0 °F 68% 30.19 in 7.0 mi NNE 4.6 mph - 0.00 in Snow Light Snow
10:53 AM 23.0 °F 13.1 °F 10.9 °F 60% 30.18 in 9.0 mi North 9.2 mph - 0.00 in Snow Light Snow
11:53 AM 25.0 °F 16.3 °F 10.9 °F 55% 30.16 in 10.0 mi North 8.1 mph - 0.00 in   Clear
12:53 PM 26.1 °F - 10.9 °F 53% 30.15 in 10.0 mi Calm Calm - N/A   Clear
1:53 PM 26.1 °F - 12.0 °F 55% 30.13 in 10.0 mi Calm Calm - N/A   Overcast
2:53 PM 26.1 °F 19.4 °F 12.9 °F 58% 30.14 in 10.0 mi West 5.8 mph - N/A   Overcast
3:53 PM 25.0 °F 16.3 °F 15.1 °F 66% 30.14 in 10.0 mi West 8.1 mph - N/A   Overcast
4:53 PM 25.0 °F 16.3 °F 18.0 °F 75% 30.13 in 7.0 mi NW 8.1 mph - 0.00 in Snow Light Snow
5:15 PM 24.8 °F 16.9 °F 17.6 °F 74% 30.09 in 8.0 mi NW 6.9 mph - 0.00 in Snow Light Snow
5:22 PM 24.8 °F 17.9 °F 17.6 °F 74% 30.09 in 9.0 mi WNW 5.8 mph - 0.00 in Snow Light Snow
5:53 PM 24.1 °F 19.7 °F 18.0 °F 77% 30.13 in 9.0 mi WNW 3.5 mph - 0.00 in   Overcast
6:53 PM 24.1 °F 15.2 °F 16.0 °F 71% 30.13 in 10.0 mi WNW 8.1 mph - 0.00 in   Overcast
7:53 PM 23.0 °F 11.7 °F 14.0 °F 68% 30.14 in 10.0 mi West 11.5 mph - N/A   Overcast
8:53 PM 21.9 °F 10.4 °F 12.9 °F 68% 30.16 in 10.0 mi West 11.5 mph 18.4 mph N/A   Overcast
9:53 PM 21.9 °F 14.5 °F 12.9 °F 68% 30.15 in 10.0 mi West 5.8 mph - N/A   Overcast
10:53 PM 21.9 °F 13.4 °F 14.0 °F 72% 30.14 in 10.0 mi West 6.9 mph - N/A   Overcast
11:53 PM 21.9 °F 14.5 °F 14.0 °F 72% 30.14 in 10.0 mi West 5.8 mph - N/A   Overcast